Weather Roundup
Issued by NWS Springfield, MO

Home | Current Version | Previous Version | Text Only | Print | Product List | Glossary On
Versions: 1 2 3 4 5 6 7 8 9 10 11 12 13 14 15 16 17 18 19 20 21 22 23 24 25 26 27 28 29 30 31 32 33 34 35 36 37 38 39 40 41 42 43 44 45 46 47 48 49 50
000
NZUS99 KSGF 041110
HRRSGF

HOURLY WEATHER
NATIONAL WEATHER SERVICE SPRINGFIELD MO
600 AM CDT TUE AUG 04 2015

......SGF CWA......

CITY           SKY/WX    TMP DP  RH WIND       PRES   REMARKS
SPRINGFIELD    PTCLDY    72  68  87 SE7       29.99R
JOPLIN         PTCLDY    75  65  70 SE3       29.96R
WEST PLAINS    CLEAR     69  65  86 CALM      30.02R
ROLLA          PTCLDY    69  68  96 CALM      29.98R FOG
OSAGE BEACH    PTCLDY    70  66  88 CALM      29.99R
BRANSON        PTCLDY    68  66  94 CALM      30.01R

......SURROUNDING SGF CWA......

CITY           SKY/WX    TMP DP  RH WIND       PRES   REMARKS
CHANUTE        MOCLDY    68  67  96 E3        29.95R
PARSONS        MOCLDY    68  67  96 CALM      29.95R
COFFEYVILLE    MOCLDY    69  67  93 CALM      29.93R
EMPORIA        CLOUDY    70  66  87 S8        29.93R
GROVE OK       PTCLDY    70  70 100 CALM      29.96R
ROGERS AR      PTCLDY    71  68  90 SE6       30.00R
SILOAM SPRINGS PTCLDY    70  61  73 SE5       29.98R
HARRISON AR    CLEAR     67  66  97 SE5       30.01R
NEAR YELLVILLE CLEAR     70  64  83 CALM      29.98R

......KANSAS AND MISSOURI......

CITY           SKY/WX    TMP DP  RH WIND       PRES   REMARKS
KANSAS CTY INT MOCLDY    72  67  84 E10       29.97R
DOWNTOWN KC    MOCLDY    74  67  78 E10       29.96R
COLUMBIA       CLEAR     69  66  90 E3        29.99R
SEDALIA        PTCLDY    71  66  84 E5        30.00R
ST JOSEPH      MOCLDY    72  65  78 SE9G18    29.94F
ST LOUIS       CLOUDY    76  65  68 NE6       29.99R
SPIRIT OF STL  MOCLDY    73  69  87 CALM      29.97R
KIRKSVILLE     LGT RAIN  67  64  90 E5        29.99R
WICHITA        CLOUDY    74  68  81 SW3       29.94R
TOPEKA         CLOUDY    73  71  93 E3        29.94R
OLATHE         MOCLDY    71  68  90 E5        29.96R

......TENNESSEE......

CITY           SKY/WX    TMP DP  RH WIND       PRES   REMARKS
MEMPHIS        PTCLDY    79  69  71 CALM      29.98R
NASHVILLE      PTCLDY    72  68  87 CALM      29.99R

......ARKANSAS.......

CITY           SKY/WX    TMP DP  RH WIND       PRES   REMARKS
FAYETTEVILLE   MOCLDY    66  66 100 CALM      30.00R
FT SMITH       PTCLDY    73  68  84 NE5       29.95R
LITTLE ROCK    PTCLDY    74  69  85 CALM      29.97R

......OKLAHOMA.......

CITY           SKY/WX    TMP DP  RH WIND       PRES   REMARKS
TULSA          CLOUDY    78  70  76 S5        29.91S
PONCA CITY     CLOUDY    79  67  66 W13G20    29.93R
MCALESTER      CLOUDY    77  64  64 E3        29.95R
OKLAHOMA CITY  LGT RAIN  72  69  90 SW13      30.00R FOG

......IOWA............

CITY           SKY/WX    TMP DP  RH WIND       PRES   REMARKS
DES MOINES     MOCLDY    67  60  78 S5        29.98R
QUAD CITIES    CLEAR     59  55  87 SW3       29.98R

......ILLINOIS........

CITY           SKY/WX    TMP DP  RH WIND       PRES   REMARKS
QUINCY         CLOUDY    66  62  87 CALM      29.99R
CHICAGO        PTCLDY    61  55  81 W3        29.94R



USA.gov is the U.S. government's official web portal to all federal, state and local government web resources and services.